Wind_Speed
3 4 3 5 7 8 8 7 6 5 6 7 6 5 4 4 2 4 3 5 1 2 3 3 4 9 10 11 12 10 5 4 9 9 9 9 8 8 8 9 10 11 13 14 17 20 22 24 26 28 30 31 32 32 32 32 34 36 37 37 37 38 38 37 36 36 36 36 35 34 36 38 37 37 38 38 39 39 38 37 37 37 36 36 36 36
5 5 7 7 8 7 6 7 7 6 6 5 6 5 1 2 2 3 1 4 3 1 3 2 4 10 11 11 12 9 6 7 10 10 10 11 10 8 9 11 11 10 10 10 13 16 18 21 22 24 26 28 30 33 33 34 35 36 36 36 37 37 37 38 39 38 38 39 38 36 37 37 36 36 37 38 39 39 38 38 37 38 37 36 36 36
4 3 9 7 5 6 6 5 7 7 6 5 4 5 3 2 2 3 2 4 5 1 3 5 5 10 10 11 13 10 8 9 8 9 10 10 10 9 9 11 10 10 10 9 10 13 17 19 19 20 23 27 31 33 33 34 34 34 34 35 35 36 37 39 40 39 40 40 39 37 36 35 34 35 37 38 38 37 38 38 38 38 38 37 37 36
3 5 7 5 7 8 6 4 8 7 4 5 4 5 2 2 1 1 2 3 3 2 1 4 5 8 7 7 10 8 6 6 6 7 9 9 10 11 10 8 8 10 11 10 9 10 13 16 16 18 22 25 28 29 30 31 32 33 34 35 36 36 36 37 39 40 40 37 35 35 34 32 32 33 34 34 35 36 37 38 39 39 39 38 38 37
4 5 2 7 6 7 7 4 6 7 2 1 3 6 3 3 4 2 1 2 3 3 3 3 5 7 5 5 7 6 4 5 5 6 8 8 8 9 9 8 8 9 9 10 10 9 9 12 16 18 22 23 25 28 30 31 32 33 34 35 35 36 36 36 37 38 38 35 32 31 30 28 27 28 29 30 33 36 37 38 39 39 39 38 38 38
4 3 3 8 4 6 8 4 5 7 3 2 3 6 6 6 6 2 2 4 4 4 4 5 4 6 6 5 7 5 7 7 6 6 8 8 6 6 7 8 8 8 8 8 10 9 8 12 14 15 17 20 24 28 29 29 30 31 32 32 33 34 34 35 35 35 35 35 33 32 30 28 26 27 29 32 34 36 37 39 39 38 38 38 38 38
2 2 3 7 6 6 7 3 4 6 6 1 4 5 6 6 7 5 4 4 2 2 3 4 3 5 7 5 7 6 8 10 8 6 8 7 7 6 6 7 6 7 7 6 8 8 8 11 12 13 14 16 21 24 23 24 26 27 28 29 30 32 33 33 33 33 34 35 35 34 34 33 31 31 33 35 35 35 36 37 38 38 38 38 38 38
2 3 5 5 6 6 5 3 5 6 8 3 3 6 7 7 7 6 6 4 1 3 4 5 4 2 6 6 7 6 7 10 9 8 9 8 8 8 7 7 6 7 6 6 7 6 6 9 10 13 12 10 14 16 17 19 21 24 26 27 28 29 30 31 31 32 33 34 36 36 35 35 35 35 35 34 33 33 33 33 35 37 38 38 38 39
1 3 3 5 6 4 4 4 6 8 6 3 4 6 6 6 7 5 6 4 1 2 4 5 2 2 6 7 6 6 5 8 9 8 9 8 8 8 7 7 6 6 5 4 5 5 7 9 9 9 9 8 8 10 11 13 16 19 22 23 24 25 27 28 29 30 32 34 35 35 35 35 36 37 36 34 31 31 31 31 33 34 35 37 38 39
1 3 5 6 5 4 3 1 4 5 2 4 6 7 6 6 6 5 5 4 3 2 4 6 1 1 5 6 4 3 2 6 7 6 7 7 8 7 7 7 6 5 4 3 4 5 7 9 8 7 5 5 4 5 7 9 11 14 17 20 22 23 24 26 27 29 30 32 33 34 35 36 37 37 36 34 32 31 31 31 33 33 34 35 37 38
2 1 2 4 3 5 4 3 2 2 4 7 6 7 7 6 5 4 3 4 4 2 6 6 2 1 3 6 4 2 3 5 2 4 6 7 7 7 7 7 7 6 6 5 5 7 9 10 9 9 6 4 3 3 5 7 9 11 14 17 19 21 22 23 25 27 29 30 32 34 35 37 37 36 34 33 34 33 32 33 34 34 34 35 36 37
4 3 1 1 1 4 6 5 3 3 4 7 5 5 5 4 5 4 4 4 2 4 6 5 2 2 3 5 4 5 6 5 3 3 5 7 8 7 7 7 7 6 6 6 6 7 10 10 10 10 8 6 4 2 3 6 8 10 12 14 17 19 20 21 23 25 27 28 31 33 35 36 36 35 34 34 35 35 35 36 36 35 35 36 36 36
3 1 2 3 1 4 6 5 4 6 5 5 5 6 5 2 3 2 3 1 3 5 4 2 1 2 5 8 8 10 9 6 7 7 5 6 7 7 7 7 7 6 6 6 6 6 6 7 9 11 9 7 6 4 4 5 7 9 11 13 15 17 18 19 21 23 25 27 30 32 33 35 35 34 35 35 36 35 35 36 36 35 36 36 36 36
1 4 3 1 1 2 5 5 3 1 1 4 5 5 4 3 2 2 4 2 3 4 3 2 1 2 4 5 8 12 9 6 7 8 6 5 6 7 7 7 6 6 5 5 5 6 5 6 9 11 11 11 9 8 7 6 6 7 9 11 14 15 15 17 20 22 24 27 29 30 32 33 34 34 35 36 36 36 36 36 36 36 36 37 37 37
4 4 4 4 2 3 5 4 6 6 3 2 4 5 5 5 5 4 4 3 4 3 3 3 2 3 2 1 6 8 6 5 5 6 5 5 6 6 6 5 5 6 6 5 5 6 6 9 12 12 13 13 13 12 11 10 10 10 10 11 13 14 14 15 18 21 24 26 27 29 30 31 32 33 34 36 36 36 36 35 36 37 37 37 38 37
4 4 5 1 1 5 5 3 4 7 2 1 2 5 3 4 5 3 3 5 3 1 2 2 3 4 3 4 6 4 3 5 5 5 4 4 6 4 5 6 6 6 6 6 6 7 8 11 13 14 15 16 16 15 14 14 13 14 14 14 15 15 15 16 18 20 23 24 26 27 29 29 30 32 34 35 36 35 35 35 36 37 37 37 37 36
3 3 5 3 2 2 3 2 2 4 3 2 2 3 4 4 7 5 2 1 3 1 3 2 3 5 3 5 7 3 3 5 5 4 4 2 4 6 6 5 5 6 6 6 5 5 7 11 14 16 17 18 18 18 16 16 15 16 16 17 18 18 18 18 19 21 22 23 25 27 27 28 30 31 33 34 35 35 35 35 36 37 37 37 36 35
5 1 4 1 1 2 1 2 4 3 3 5 3 5 4 2 5 4 2 3 4 2 5 1 4 5 1 3 7 5 3 1 1 3 5 4 4 7 5 4 4 5 5 5 5 5 6 9 13 15 17 18 18 19 18 17 15 15 16 16 18 20 20 20 20 21 22 23 25 26 27 28 29 31 32 33 34 34 34 35 36 36 37 37 35 34
5 2 4 1 2 3 4 3 2 4 3 5 4 3 4 3 1 2 2 1 1 2 4 4 3 3 4 5 3 1 4 4 4 3 5 6 6 6 5 6 6 5 6 6 6 6 7 10 14 16 18 19 19 19 19 18 16 14 14 15 16 18 20 21 21 21 21 23 24 26 27 28 29 30 31 32 32 33 34 36 36 36 37 36 35 34
4 4 2 2 1 2 3 2 4 1 4 4 3 3 3 3 4 2 2 3 3 3 3 4 4 3 6 6 5 7 7 7 6 5 6 6 5 4 4 5 5 5 5 6 6 6 7 11 15 17 19 21 21 20 20 20 18 15 14 14 15 18 20 21 22 23 23 23 23 25 27 28 29 30 30 31 32 33 35 36 36 37 37 36 35 35
3 3 3 2 3 1 2 3 7 7 4 3 3 4 2 1 2 2 1 2 4 4 2 2 4 5 6 4 8 9 7 9 9 8 7 5 4 2 0 0 1 3 4 5 6 6 7 13 18 20 21 23 24 24 24 22 21 20 18 17 17 19 21 23 25 25 26 25 24 25 27 28 29 30 30 31 32 34 36 36 37 37 36 36 36 35
2 3 4 2 0 4 4 4 4 6 6 6 6 7 7 4 4 3 2 1 2 3 4 3 4 7 5 3 6 7 6 9 8 8 8 6 5 3 3 3 3 1 2 5 6 6 7 12 16 20 22 23 24 26 27 25 23 23 23 22 22 23 24 25 26 26 27 27 27 27 27 27 28 29 30 31 32 34 36 37 37 36 35 36 37 35
3 4 4 2 3 6 5 4 1 2 2 4 3 4 5 4 5 6 5 3 1 1 2 3 2 7 5 1 2 4 5 8 7 7 7 6 5 4 4 5 5 4 4 6 5 5 6 9 13 17 21 22 23 25 26 25 23 21 21 20 21 22 23 24 25 25 26 28 28 29 28 27 28 28 30 31 33 36 36 37 37 36 36 37 36 35
2 4 4 1 3 4 5 5 3 2 3 2 1 2 5 3 3 5 5 4 3 3 3 3 3 7 6 3 2 1 3 5 5 6 6 5 5 5 5 5 5 6 6 7 6 6 4 4 10 14 17 19 21 23 24 24 24 23 22 21 21 22 23 24 25 25 25 25 27 28 28 29 29 28 30 31 34 36 37 37 36 36 36 37 37 37
3 2 4 3 2 3 4 4 3 2 2 3 3 2 5 5 6 4 2 3 2 5 7 5 5 7 5 4 3 2 3 3 4 5 4 3 3 4 6 6 6 6 6 4 3 3 3 6 11 15 17 19 21 24 25 26 26 26 25 25 24 24 26 26 25 25 24 24 25 26 27 28 29 30 31 32 34 35 36 37 37 36 37 37 37 38
5 4 5 6 6 6 6 5 4 4 3 1 2 5 6 7 9 5 3 3 4 6 7 6 7 5 3 3 1 1 2 4 5 5 5 4 4 5 5 4 3 3 6 8 9 10 10 11 15 18 20 22 23 25 26 27 27 27 27 27 26 26 27 27 26 25 25 24 24 25 26 28 29 31 32 33 34 35 35 36 37 37 37 37 37 38
4 3 5 8 10 10 8 5 4 8 7 5 6 8 8 8 10 7 4 5 7 3 3 7 7 5 5 4 5 5 4 5 4 3 3 3 3 4 5 6 7 8 9 10 10 10 10 10 12 17 20 22 24 25 25 26 27 27 29 30 30 29 28 27 27 27 26 25 25 25 26 27 29 30 32 34 34 35 35 36 37 37 37 37 37 38
4 3 6 8 9 8 5 5 6 8 10 12 11 11 10 10 11 10 8 11 6 4 6 10 6 7 11 7 7 9 5 3 4 4 3 5 7 7 7 7 9 9 8 8 8 8 9 9 10 15 19 22 24 26 27 27 27 27 29 30 31 31 30 29 29 29 28 26 26 27 28 29 29 30 31 33 34 35 36 36 37 37 37 36 36 38
5 5 5 6 6 5 2 4 7 8 7 8 10 12 13 12 13 14 15 15 9 7 13 9 9 12 14 7 8 10 5 2 1 2 1 3 5 7 7 7 7 7 7 7 7 7 8 8 9 13 18 20 23 26 28 28 29 31 31 31 32 32 31 31 32 31 29 27 28 29 30 30 30 30 31 31 32 34 35 36 37 37 36 35 36 37
4 3 3 6 5 4 3 4 6 8 6 4 7 10 12 14 16 17 18 17 12 11 11 3 6 13 10 6 9 9 5 4 1 1 2 3 4 5 5 5 4 4 6 6 6 7 6 7 10 13 17 20 22 25 27 28 30 32 33 33 34 35 34 34 34 32 30 30 31 31 31 31 31 31 31 30 30 31 32 33 35 36 36 36 36 36
1 2 1 5 4 4 3 4 4 6 7 5 5 6 9 13 15 16 15 10 6 8 10 4 6 12 6 7 8 7 3 4 4 1 4 4 3 1 3 3 3 3 5 5 6 6 6 7 10 13 16 19 22 24 26 28 31 32 34 35 37 38 38 37 37 36 35 35 34 33 32 32 33 33 32 32 32 31 31 31 31 33 35 36 36 36
1 1 2 4 3 5 3 5 4 5 5 1 4 8 11 11 10 10 8 6 7 10 11 7 9 12 5 7 4 4 3 5 6 5 5 1 2 4 5 3 4 5 5 6 6 6 6 7 9 12 16 19 21 23 25 28 30 31 33 35 36 37 38 38 38 39 39 38 38 37 36 35 35 34 34 33 33 33 32 31 31 31 33 34 34 34
2 3 2 3 4 2 0 6 6 6 5 3 9 12 12 10 7 4 3 5 10 11 8 8 11 11 3 7 4 2 3 6 6 6 4 3 4 4 4 2 3 5 5 6 7 7 7 8 10 13 16 18 21 22 24 25 25 26 29 32 33 34 34 35 36 37 38 38 38 38 38 37 36 36 35 34 34 34 33 32 32 32 32 32 32 32
3 4 1 1 2 2 3 7 6 3 5 6 5 7 11 12 9 7 5 9 10 8 6 7 9 8 2 5 6 5 4 4 4 4 4 5 5 4 2 1 3 5 5 5 6 7 8 11 15 17 18 20 21 23 25 25 24 26 28 30 31 31 31 33 34 34 35 36 36 36 37 37 36 36 36 35 34 34 33 32 32 33 32 32 31 31
4 4 2 1 1 1 3 5 3 5 7 4 0 4 9 10 11 11 12 12 9 9 9 10 11 12 9 4 5 7 6 4 5 6 6 6 6 5 3 1 4 4 5 6 6 7 9 13 16 19 22 23 24 26 27 28 28 30 32 32 32 32 31 32 34 33 34 35 35 35 35 36 37 37 37 36 35 33 32 32 32 32 32 31 31 32
6 4 2 2 2 1 2 4 5 3 2 3 3 3 3 4 6 8 9 10 9 11 12 13 15 15 9 2 5 6 5 5 5 4 4 5 5 5 3 1 4 4 5 7 8 10 14 16 17 20 22 24 25 26 27 28 30 32 33 33 33 33 33 33 33 33 34 35 36 36 35 35 36 37 37 36 34 33 33 32 32 31 30 30 31 31
6 6 3 3 4 3 3 5 4 4 5 7 7 4 3 5 7 6 7 9 9 11 12 13 15 13 5 5 6 5 5 7 5 3 5 4 4 4 2 2 4 5 7 9 11 13 16 18 19 19 21 23 24 24 25 26 28 30 32 32 32 33 34 33 33 33 34 35 36 36 37 36 35 36 36 35 34 34 33 32 31 30 29 29 31 31
4 5 5 6 5 4 5 6 3 3 8 10 7 5 5 7 8 8 7 7 6 8 11 11 12 10 5 7 6 5 6 5 3 5 6 6 5 3 2 4 5 6 9 10 11 13 15 16 17 18 20 21 23 23 23 24 26 28 29 30 30 30 31 32 32 33 34 36 37 37 37 35 34 34 34 34 33 33 34 33 32 30 28 27 29 30
1 1 3 5 4 4 6 7 6 7 7 7 6 4 4 6 8 8 5 7 6 6 9 9 9 9 6 7 7 7 6 4 5 5 5 6 4 3 2 5 6 6 9 10 10 12 14 14 15 17 19 20 22 23 23 24 25 26 28 29 29 30 30 30 32 33 35 37 38 38 37 36 34 33 32 33 33 32 32 33 32 30 29 28 28 29
2 2 2 5 5 5 6 6 5 5 4 4 6 5 2 5 9 9 4 8 5 5 7 9 10 8 6 7 6 6 6 6 5 4 4 4 2 2 1 4 7 8 10 10 10 10 11 12 14 17 19 20 22 23 23 24 25 26 27 29 29 30 30 31 33 35 36 38 38 38 37 35 34 33 32 32 32 32 31 31 31 30 29 28 28 28
2 2 3 6 6 7 8 6 2 2 4 5 6 4 3 5 6 6 8 6 4 7 5 6 8 6 7 7 5 4 5 5 4 2 2 3 2 4 4 5 8 9 10 11 10 9 9 10 13 15 18 20 22 22 22 22 23 25 27 27 28 30 30 31 33 35 36 37 38 38 37 35 34 34 33 33 32 32 31 29 28 28 28 28 28 27
4 3 3 5 5 6 6 4 2 4 5 5 4 1 3 5 4 6 5 2 5 8 5 4 6 6 7 6 5 4 4 3 3 3 2 1 2 5 7 7 7 8 9 10 11 11 10 11 12 14 18 20 20 20 20 19 21 24 25 26 28 30 31 32 33 34 35 36 37 37 36 34 33 33 33 33 32 32 33 30 27 26 26 26 26 26
6 5 3 5 5 4 4 5 4 5 4 8 7 0 2 5 5 4 3 1 2 6 6 5 5 5 6 5 4 4 3 1 2 3 2 3 4 5 7 8 8 9 11 12 13 14 13 13 14 16 20 21 20 20 18 16 18 21 23 26 30 31 32 33 33 33 34 35 36 35 34 33 32 31 32 33 32 32 32 31 27 25 23 23 24 24
5 5 4 5 5 5 5 7 5 3 3 7 8 4 5 5 5 6 7 3 2 3 5 4 4 4 6 6 4 4 2 2 2 2 2 3 3 4 6 8 10 11 13 14 16 16 16 15 16 19 22 23 23 23 20 17 18 20 22 26 29 31 32 33 33 33 34 34 34 33 32 31 31 31 30 31 30 30 31 30 27 25 23 21 21 22
5 6 5 4 4 4 4 5 4 1 2 3 3 3 4 2 2 5 8 6 4 4 3 5 4 4 5 5 5 4 2 1 1 2 2 3 3 4 5 8 10 12 14 15 17 18 18 18 19 20 22 24 24 25 25 22 20 22 26 28 29 31 33 34 33 33 34 34 33 32 31 30 30 30 29 29 28 28 29 29 27 25 23 21 20 20
3 3 3 2 2 3 2 2 2 1 1 2 2 0 2 2 2 4 6 6 5 4 3 4 5 5 5 5 5 4 2 1 1 3 4 4 5 6 7 9 11 13 16 18 20 22 22 23 23 22 24 26 26 26 28 27 24 25 29 31 31 31 32 32 33 34 34 34 33 32 30 29 30 29 28 27 26 26 26 26 25 25 23 21 19 19
3 2 3 2 3 4 3 3 3 3 1 1 1 2 3 4 4 4 5 5 4 4 5 4 5 6 5 5 6 4 2 1 0 2 4 3 4 6 8 11 12 15 17 19 20 22 22 22 23 23 24 27 27 26 28 29 28 27 30 32 32 32 31 31 32 33 34 34 33 32 30 29 29 29 28 27 26 25 24 23 23 24 23 21 19 19
2 3 4 3 4 4 3 2 0 2 2 2 0 3 4 5 6 6 6 6 6 6 6 5 5 5 4 4 5 4 1 1 2 3 4 4 4 6 8 10 12 15 17 18 19 21 20 20 21 22 24 27 28 27 28 29 30 30 30 32 32 32 32 32 32 32 34 34 32 32 30 28 28 28 27 27 25 24 23 22 21 21 22 21 20 19
2 4 4 3 3 2 1 1 1 3 5 5 2 2 3 5 7 8 7 6 7 7 6 6 6 6 5 4 4 4 3 2 2 3 4 4 4 6 8 11 14 15 16 18 20 21 20 20 21 23 25 27 28 28 30 32 33 32 31 32 32 31 32 33 32 32 33 33 31 30 29 27 26 25 25 25 24 23 22 21 19 19 21 21 20 18
4 4 3 3 4 3 3 5 6 4 1 3 4 1 3 4 8 9 7 6 6 5 5 6 6 6 7 7 6 5 3 1 3 5 4 4 6 9 13 15 18 19 19 21 23 23 22 22 23 25 28 29 28 28 31 33 35 34 33 32 32 31 31 31 31 31 32 31 30 29 28 26 25 23 22 22 22 21 21 19 17 17 18 18 18 18
5 6 5 5 5 5 6 8 7 5 2 3 3 3 2 2 6 8 7 6 5 4 3 5 5 4 5 7 9 8 4 3 6 7 6 6 9 13 15 15 17 20 22 23 23 23 25 26 26 27 28 30 30 30 31 33 34 34 33 33 33 32 32 31 29 30 31 30 29 29 28 26 25 23 21 20 19 18 18 18 16 15 14 14 14 15
Wind_Direction
89 117 167 182 187 192 188 165 142 148 139 138 129 111 147 165 222 249 264 303 4 130 260 245 250 271 271 273 271 278 331 312 274 276 268 263 259 253 246 247 245 242 251 258 257 254 253 252 250 247 243 238 236 235 232 229 229 229 228 226 226 227 224 222 222 222 222 221 222 224 226 229 230 230 230 230 230 231 232 232 231 232 232 232 232 233
74 144 209 213 194 177 154 143 115 100 90 95 125 121 124 176 211 245 241 319 359 118 265 358 325 274 262 269 270 269 286 269 250 250 256 256 255 255 254 255 253 253 264 268 262 258 254 253 251 245 240 235 233 233 231 229 230 229 227 225 227 227 223 222 223 222 223 223 222 223 225 229 230 231 231 231 233 233 233 234 233 234 235 234 233 232
68 198 229 218 164 109 98 120 102 91 88 81 109 126 136 206 243 286 301 340 9 53 271 345 332 279 263 261 264 258 251 254 246 237 246 253 257 256 250 253 259 265 271 269 263 261 256 253 249 243 237 234 234 234 231 229 229 227 226 226 227 226 224 224 224 223 225 226 226 226 227 229 230 233 235 235 236 236 236 236 235 236 236 236 236 235
147 247 240 179 138 112 91 94 98 89 81 88 108 129 164 247 180 244 299 338 11 70 269 316 306 283 283 280 276 270 255 265 272 258 254 248 247 253 255 259 262 264 272 276 271 263 258 254 248 241 238 237 235 234 231 229 227 226 226 227 227 227 227 226 225 225 227 227 227 227 229 231 232 235 237 239 239 239 238 238 237 237 236 236 236 236
196 262 180 121 120 121 114 111 122 121 79 46 140 140 164 214 174 173 300 346 4 26 26 353 320 293 315 334 295 299 326 300 307 312 286 261 251 267 281 277 262 258 266 273 274 271 260 254 248 243 241 239 236 234 234 231 228 227 228 229 228 228 228 227 227 226 225 224 224 224 226 229 232 235 236 236 237 237 238 239 238 237 236 235 236 236
225 270 128 120 97 99 115 141 171 151 142 291 221 175 176 176 164 154 38 50 36 359 353 24 0 292 317 328 279 304 344 317 319 321 291 288 299 293 283 275 264 261 259 258 269 276 273 267 262 256 246 239 238 238 238 235 232 230 230 230 228 228 229 229 229 227 224 223 222 221 221 223 226 229 231 232 234 235 237 238 239 240 238 236 236 236
226 350 87 128 124 104 103 130 200 152 123 219 233 177 153 131 128 128 91 71 75 271 321 48 103 266 310 308 274 311 333 313 318 313 298 309 315 298 280 279 275 270 268 262 269 277 281 281 278 272 259 246 243 244 243 239 235 233 232 232 230 229 230 230 230 227 225 223 223 223 224 225 226 228 233 235 237 239 240 241 241 241 241 239 237 237
166 76 60 89 100 109 119 155 199 142 121 207 226 133 123 116 125 130 98 86 190 244 329 19 108 242 297 274 272 321 331 317 325 319 315 322 317 314 308 296 283 266 265 270 283 299 301 294 290 285 285 275 259 253 249 244 238 235 234 234 233 232 231 231 230 228 227 226 226 227 228 229 231 234 239 241 242 243 243 243 243 242 243 242 241 240
128 138 159 120 94 123 176 206 181 127 107 227 194 122 120 119 122 115 92 88 16 11 321 320 77 197 274 275 300 346 334 309 313 308 312 319 317 322 322 314 303 281 271 270 284 305 313 315 316 306 306 310 288 265 254 248 243 238 236 235 235 234 233 232 231 231 230 230 230 230 230 232 235 238 242 244 246 246 245 245 245 244 244 244 244 243
56 199 194 138 124 177 196 221 164 126 101 180 142 100 77 73 78 75 87 98 45 29 252 267 325 183 268 287 310 359 302 264 277 287 292 303 306 309 319 326 330 331 338 330 300 304 327 345 359 356 341 334 320 277 251 245 241 237 236 235 235 236 236 235 235 234 234 233 233 233 233 235 238 241 243 244 246 246 246 246 246 246 245 246 246 245
313 280 186 120 144 181 148 100 123 135 132 134 109 74 58 34 34 46 52 77 62 319 254 253 282 162 266 284 264 217 225 218 229 304 305 315 323 320 327 339 348 351 346 338 323 327 346 6 23 27 24 11 349 295 252 244 239 235 234 234 235 238 238 238 238 237 237 237 236 237 238 239 241 242 243 244 245 245 245 246 247 247 248 248 248 247
353 27 327 269 167 131 99 76 40 21 84 104 89 84 78 4 10 25 2 37 97 258 261 260 270 162 219 267 260 244 250 228 199 249 295 315 320 320 324 334 342 342 336 338 340 340 350 359 6 16 27 24 4 314 263 249 245 242 238 236 237 239 239 240 241 240 241 240 240 241 242 243 244 244 245 245 247 247 247 248 249 249 250 250 250 249
20 37 295 313 250 148 107 83 43 10 29 75 91 94 89 12 10 359 316 347 213 244 268 271 246 199 231 251 258 262 259 234 218 221 237 280 292 305 325 334 334 332 331 337 341 337 339 337 339 350 358 357 354 337 305 268 255 251 246 245 245 245 245 245 245 245 245 244 245 245 245 246 247 247 247 249 250 251 251 252 252 252 251 252 251 250
325 309 303 51 291 198 136 127 128 180 99 118 131 124 120 119 98 261 269 285 256 260 288 290 264 255 269 263 247 251 254 234 226 232 231 242 259 281 303 314 318 323 324 322 329 330 324 327 336 340 339 336 334 329 319 304 289 272 261 256 255 257 255 253 253 252 250 250 250 250 250 250 250 250 251 252 253 254 255 255 256 256 256 255 255 255
171 273 231 165 214 195 167 174 153 146 148 164 155 128 139 155 155 204 221 209 241 277 305 297 265 198 197 252 229 233 263 274 259 269 277 264 258 271 297 318 330 339 344 340 345 343 333 341 347 346 343 338 330 324 317 311 304 295 287 276 270 272 269 265 264 260 258 258 256 254 253 253 253 254 255 256 257 257 257 258 259 260 260 259 260 261
152 244 259 269 259 163 170 229 126 112 108 231 125 106 154 186 140 137 182 171 173 309 302 260 235 215 203 273 269 250 304 314 294 306 332 302 292 334 3 354 348 345 350 355 359 352 343 351 356 353 353 349 341 333 322 316 310 302 298 291 283 283 280 276 273 270 268 266 263 259 257 257 257 257 257 258 259 259 259 261 261 262 263 264 264 264
143 262 298 344 346 133 166 230 104 119 176 162 129 172 212 175 114 114 207 82 82 224 270 225 242 292 326 297 298 334 10 343 331 349 28 338 327 18 25 1 351 344 345 347 342 334 335 352 359 358 358 355 349 344 334 328 320 309 303 297 293 291 287 285 282 281 279 274 269 265 261 260 260 259 260 261 262 262 263 263 263 264 265 265 266 266
153 205 310 37 128 301 305 114 62 35 123 123 176 207 192 122 90 105 178 7 43 237 275 273 231 283 338 279 313 2 44 29 48 46 54 55 36 42 36 16 2 340 338 339 336 339 346 358 2 1 0 357 354 349 343 337 330 320 314 308 304 302 300 297 293 288 285 280 276 272 269 267 265 264 264 264 265 265 265 265 265 266 267 267 267 269
141 138 308 12 159 298 351 94 80 358 54 127 181 174 116 138 159 88 146 169 128 234 284 302 272 258 201 224 300 55 146 147 138 109 87 91 80 68 56 39 20 1 0 359 354 352 353 359 1 359 357 356 356 353 347 341 335 333 332 327 322 320 316 311 304 297 292 287 282 279 275 272 270 268 267 267 267 267 266 267 268 268 269 269 270 270
138 142 258 312 242 304 15 120 192 237 32 58 103 103 78 133 163 157 151 159 171 198 270 307 318 271 228 216 200 195 184 158 145 132 124 120 105 93 72 49 27 17 9 355 350 339 339 351 355 356 355 354 355 355 351 341 332 332 336 336 336 333 328 323 316 310 304 298 292 287 282 278 274 272 271 270 269 268 269 269 270 270 270 271 272 271
129 151 204 305 341 206 192 217 190 168 149 113 126 160 173 88 110 153 144 117 139 162 191 281 299 268 249 216 197 206 186 161 157 149 152 153 136 144 118 47 333 1 351 334 336 326 331 346 351 356 357 355 355 357 358 350 337 334 335 335 336 333 329 328 325 320 314 309 302 296 291 286 282 277 275 273 271 270 271 271 270 270 271 271 271 271
152 152 166 150 197 202 227 258 195 174 174 168 179 189 178 153 124 148 242 254 114 150 171 185 266 263 253 211 208 214 178 169 167 145 153 172 172 198 250 246 235 269 311 301 306 311 327 343 350 354 355 355 357 360 2 1 353 347 345 341 337 331 328 327 325 323 320 316 310 303 300 295 289 283 278 275 273 272 272 271 271 270 270 270 271 271
130 109 127 159 214 216 246 282 210 169 133 130 186 194 165 152 134 149 206 227 149 176 150 126 256 267 270 272 237 231 179 169 168 142 149 182 202 224 256 264 256 250 267 280 284 292 317 342 353 355 354 356 359 1 2 3 2 359 354 349 340 333 331 330 327 324 321 318 314 310 305 300 296 290 283 278 276 274 273 273 273 271 270 271 271 271
123 106 123 185 304 308 314 337 15 53 93 119 236 168 149 169 144 145 177 174 163 193 153 108 260 264 282 328 348 302 130 137 161 163 160 185 224 248 256 260 257 250 255 253 243 244 262 347 4 2 358 357 358 359 2 3 4 3 360 355 348 342 340 339 335 332 327 322 318 314 310 305 302 295 288 285 282 279 277 276 275 273 272 272 271 270
198 157 128 122 30 356 335 333 328 286 187 186 215 171 160 148 109 99 127 121 198 216 171 160 234 254 284 331 24 62 98 141 198 215 194 168 191 232 246 245 238 243 259 264 272 301 337 1 6 5 -0 358 359 360 3 4 3 2 359 356 353 349 347 346 343 338 334 327 321 317 314 310 306 300 295 293 290 287 284 280 277 276 274 272 271 269
183 181 147 148 171 193 205 214 216 197 169 193 203 180 178 154 143 156 135 131 229 225 167 184 232 249 297 315 252 191 185 213 243 255 246 213 198 219 242 258 264 306 347 358 359 360 2 -0 0 359 355 356 358 360 0 -0 360 359 356 355 355 353 350 349 347 342 337 331 324 319 316 313 310 306 303 300 297 294 291 286 282 279 277 274 272 270
135 191 185 181 200 205 201 201 163 134 147 204 205 180 184 180 172 168 130 176 213 187 171 225 232 239 254 235 232 242 213 217 260 280 258 261 285 307 337 354 359 7 7 3 0 359 359 357 352 349 349 352 355 356 357 356 357 356 354 353 353 352 351 350 347 343 338 333 325 319 317 317 315 312 308 305 302 299 294 291 287 283 281 278 273 271
113 216 208 194 217 221 194 195 176 153 174 198 193 182 187 185 177 174 190 212 193 120 241 235 187 227 245 214 218 247 237 246 318 12 19 342 335 339 356 8 8 6 0 359 2 359 353 347 342 343 345 348 350 351 353 353 354 353 350 349 349 348 348 348 344 341 337 332 325 320 319 319 316 313 310 307 304 301 298 295 291 287 285 281 276 272
139 210 205 179 215 235 190 186 184 176 186 192 186 189 188 182 182 189 209 219 184 182 242 227 158 221 242 193 205 235 210 184 326 47 23 312 315 325 346 16 19 3 353 355 353 349 346 338 335 337 340 344 348 349 350 351 351 351 349 348 348 346 345 343 340 339 336 331 326 323 322 320 317 314 311 307 304 302 300 298 295 291 287 283 280 277
154 211 193 161 192 228 199 180 177 171 171 187 195 194 187 187 193 198 212 221 206 214 248 223 173 240 247 176 214 234 168 143 101 37 297 280 291 314 344 25 31 352 340 344 334 332 336 328 327 334 339 344 347 347 348 349 349 348 349 349 348 347 346 343 340 338 335 330 327 326 325 322 320 318 314 309 305 302 300 298 295 292 289 286 283 279
170 212 136 126 170 236 210 159 152 151 158 181 210 208 198 197 203 211 218 218 203 235 259 258 251 267 251 171 215 247 198 124 89 169 254 272 285 348 41 41 27 347 330 328 321 318 322 323 329 336 340 343 345 346 347 347 346 348 348 349 349 348 347 345 343 340 336 331 329 329 329 328 326 323 318 314 311 307 304 300 295 290 288 286 283 280
88 160 48 91 164 244 221 146 126 81 84 95 255 229 208 199 206 216 216 198 187 217 238 242 254 264 231 159 186 249 199 138 135 192 222 281 73 98 83 40 354 342 326 318 314 311 315 322 328 333 335 337 340 344 345 344 344 346 346 346 346 346 345 345 344 342 338 335 332 330 331 331 330 326 322 319 317 313 310 305 299 293 288 285 283 281
102 119 88 126 170 250 93 131 122 76 63 275 249 224 206 205 208 178 153 208 207 204 209 219 236 248 201 139 158 202 159 148 162 194 189 118 115 116 96 36 330 320 311 306 304 304 311 317 321 324 327 332 336 338 340 341 340 341 341 341 342 343 342 341 341 340 339 337 334 332 331 331 330 327 325 324 321 317 312 306 301 297 292 289 286 281
106 105 103 155 159 184 130 114 108 129 203 236 232 183 185 199 195 172 195 222 211 197 213 237 251 261 221 153 175 187 188 179 159 157 153 138 137 134 124 294 291 290 291 292 290 296 311 319 324 326 327 330 333 335 338 340 340 338 337 338 338 339 338 338 337 337 336 336 335 333 332 331 329 326 325 324 322 318 312 306 302 298 294 291 286 280
135 123 129 108 117 162 127 116 151 214 221 242 322 157 186 193 182 190 221 231 213 206 229 246 255 255 247 207 159 170 191 177 129 129 139 142 141 133 125 291 295 295 298 302 299 304 315 321 323 325 328 332 334 336 340 343 342 339 337 338 338 337 338 336 334 335 335 334 333 333 332 330 328 325 323 322 321 317 311 307 302 299 295 291 284 279
181 163 144 140 159 166 126 167 210 244 296 294 274 229 195 155 160 197 235 243 216 202 213 229 241 248 249 164 125 163 179 135 118 150 169 161 156 133 112 324 298 285 286 300 307 312 319 324 324 324 327 331 333 336 340 342 340 337 335 337 337 337 337 335 334 334 334 332 331 331 331 329 326 324 322 321 318 313 309 306 302 299 295 289 283 278
186 170 161 190 198 191 201 219 242 329 314 269 248 232 193 158 157 185 230 246 221 195 198 217 235 244 231 135 138 166 143 111 121 215 227 209 194 167 153 289 292 284 290 304 311 315 321 326 328 328 329 328 330 334 337 337 335 333 331 333 335 335 334 333 333 333 332 329 329 328 328 328 326 323 322 320 316 311 308 305 301 299 295 287 281 277
174 170 176 202 205 183 207 239 246 251 258 251 234 218 204 184 165 166 203 247 244 203 198 207 225 232 197 142 146 151 128 122 169 224 230 227 218 196 235 287 298 299 306 314 317 320 325 328 328 328 327 325 326 332 336 333 330 328 327 328 330 330 329 330 331 331 328 327 326 325 325 325 324 322 321 319 316 312 309 306 302 299 294 286 281 277
126 93 146 189 204 186 199 225 227 225 245 249 232 230 209 173 146 136 186 251 250 203 185 187 215 225 189 154 151 140 138 175 226 230 211 209 213 194 232 290 309 313 313 318 319 318 323 327 325 323 324 323 325 332 335 331 328 326 324 325 327 326 325 327 328 327 325 324 324 323 323 323 322 321 319 317 315 313 310 307 304 300 294 286 281 278
154 116 156 194 212 210 208 222 231 231 253 252 240 253 226 153 128 126 200 253 235 182 168 172 195 206 167 148 142 133 155 193 216 220 188 179 253 300 275 296 309 314 315 321 325 322 321 324 322 320 322 323 325 330 332 329 327 324 323 324 324 322 323 325 325 324 323 322 322 322 322 322 321 319 317 315 314 313 310 307 304 300 294 287 282 278
170 167 195 200 208 217 221 233 258 257 251 236 226 219 164 142 135 166 216 238 185 177 183 164 168 169 149 146 141 146 183 187 169 163 126 100 354 314 305 302 306 313 318 323 330 330 324 323 321 318 319 323 325 328 329 328 323 320 321 321 318 317 322 324 323 322 322 321 321 321 321 321 320 318 316 315 314 311 309 307 304 299 294 289 283 277
177 185 198 195 204 216 222 230 260 264 238 182 160 190 148 155 194 212 217 210 159 173 183 162 158 158 151 155 159 157 172 166 123 94 56 96 239 279 296 308 314 320 324 327 334 339 334 328 324 318 318 323 324 324 327 325 318 317 318 316 314 318 322 322 321 321 320 319 319 319 320 320 319 317 315 315 314 311 308 307 304 298 292 287 281 274
178 178 190 191 194 202 218 220 223 250 227 145 128 36 236 185 202 191 140 65 155 160 163 171 176 163 149 155 179 176 159 139 124 126 189 221 228 267 296 311 318 323 330 333 336 340 337 331 327 322 323 326 327 325 326 321 312 313 313 312 317 323 323 320 320 319 317 316 317 317 318 317 316 315 314 313 313 309 306 305 301 296 290 283 277 271
188 184 188 198 194 182 202 219 211 214 206 161 152 190 215 198 194 162 139 142 199 174 161 159 174 186 165 144 147 159 138 117 145 159 202 234 252 273 298 319 326 328 333 334 334 337 338 332 327 325 326 329 331 330 328 322 314 309 307 311 320 324 321 319 319 316 313 314 314 314 316 315 313 312 311 311 310 306 303 302 299 293 286 279 271 266
218 201 176 178 194 180 185 219 228 215 211 179 154 193 206 186 171 158 143 141 168 188 168 149 158 183 174 139 122 121 111 94 12 338 331 312 304 302 311 321 325 328 330 330 333 336 337 332 327 324 324 326 330 330 328 325 320 311 309 315 323 323 321 320 317 313 312 312 311 312 314 312 310 309 308 307 305 302 300 299 296 290 284 277 267 259
252 205 147 140 213 223 207 206 194 97 52 70 62 138 189 131 110 127 119 119 142 151 135 138 143 140 142 138 120 114 128 148 322 312 308 303 304 312 321 324 330 335 334 333 335 336 335 333 329 326 323 322 325 327 325 324 320 312 313 319 323 323 322 320 315 312 311 310 310 311 312 309 307 307 307 305 301 298 296 294 290 286 282 275 265 257
286 189 160 176 200 207 228 219 160 128 127 121 65 65 81 75 65 81 97 105 117 114 101 99 103 103 104 109 114 129 183 186 157 283 295 309 308 315 326 328 331 334 332 329 330 331 331 329 325 322 319 317 319 322 321 319 317 314 315 320 323 324 323 318 313 311 309 308 309 309 309 307 306 306 306 305 301 296 293 291 286 281 277 271 263 256
238 170 168 201 199 188 220 258 130 70 4 315 1 97 97 91 76 72 85 97 95 90 80 71 81 94 89 90 111 127 133 25 26 342 327 325 312 309 317 319 321 325 324 324 325 326 325 322 317 315 313 312 315 319 318 315 315 315 316 320 324 325 322 316 313 309 306 306 306 306 306 305 304 304 304 303 300 295 290 288 283 277 272 268 262 256
154 160 175 183 182 173 281 257 157 59 6 329 314 44 76 109 110 97 90 92 90 89 85 71 67 77 80 82 103 109 89 42 4 343 320 305 304 310 315 319 321 321 322 323 323 323 321 318 315 314 311 310 314 318 317 315 315 317 318 321 325 326 320 315 313 308 304 304 303 303 304 303 300 300 300 299 298 294 289 285 281 276 273 269 263 257
145 174 177 135 151 195 220 197 171 131 91 254 233 136 65 108 123 115 103 94 87 92 107 101 83 74 76 75 76 82 85 36 353 345 325 314 323 323 324 328 327 323 324 326 324 323 322 320 318 316 312 312 315 317 315 315 316 318 319 322 325 326 320 315 311 306 302 301 301 301 303 301 298 297 295 294 294 292 289 285 280 276 275 272 267 263
175 180 173 152 172 219 216 189 170 138 136 194 170 123 72 97 119 117 111 110 105 94 105 117 105 85 74 63 54 51 48 17 3 354 334 320 321 321 322 326 325 322 322 325 325 324 322 320 319 317 314 314 316 315 314 313 314 317 320 323 327 327 322 315 310 304 301 300 299 300 301 298 295 293 289 286 285 285 284 283 280 276 275 273 270 269
Height
806 809 815 815 814 813 814 817 818 823 824 825 828 829 831 831 830 833 832 832 834 829 829 834 832 828 821 816 812 810 815 816 811 808 806 805 804 804 804 803 801 800 796 794 796 797 797 797 798 799 800 801 803 803 805 806 807 808 810 812 813 815 818 821 822 823 825 827 828 829 829 829 830 832 834 834 835 837 838 839 841 841 842 843 844 846
808 813 814 810 811 813 817 823 821 824 828 827 828 828 833 835 830 832 833 833 835 830 830 837 834 826 821 815 811 812 813 810 806 805 803 802 802 802 801 799 798 796 794 794 795 794 795 795 795 796 797 798 799 799 800 802 803 805 807 808 810 812 815 816 818 820 821 822 823 825 825 826 829 830 831 832 833 834 836 837 839 839 841 842 843 843
814 815 809 810 819 821 823 825 820 821 825 828 831 828 830 837 834 833 833 834 836 831 829 834 831 821 818 815 808 808 809 804 804 804 801 800 800 800 798 796 795 794 792 792 793 792 792 793 793 794 794 794 794 795 797 799 800 803 804 806 808 810 812 813 815 816 817 819 821 822 824 826 827 828 829 830 831 833 834 835 836 837 838 840 841 842
819 813 809 817 822 818 821 825 820 821 826 828 830 827 831 839 836 830 831 835 837 837 834 833 829 819 813 811 804 805 810 806 804 805 803 802 800 796 795 795 795 793 791 791 791 791 791 791 791 791 791 791 792 794 795 797 798 800 801 803 805 806 808 810 811 813 815 818 820 822 823 825 826 826 827 829 829 830 831 831 833 834 835 837 839 840
813 814 817 820 818 813 818 824 820 819 827 832 830 827 829 832 832 832 834 835 836 840 840 833 825 815 809 808 801 803 810 805 804 804 797 797 799 798 796 795 795 794 792 791 788 788 789 789 789 789 789 790 791 791 792 793 795 796 798 800 802 804 805 807 809 811 814 817 819 820 822 823 824 825 825 826 825 826 827 828 829 830 833 835 836 837
811 818 820 816 816 815 816 821 821 820 825 830 828 825 825 823 826 833 834 833 833 837 842 840 830 818 809 806 800 800 803 798 800 800 791 791 796 797 794 791 793 792 791 791 788 786 787 787 787 788 788 789 789 789 790 792 794 795 797 799 800 802 803 805 807 810 812 814 816 817 818 819 820 821 820 820 820 822 823 824 826 828 830 832 833 834
814 819 818 812 814 816 816 819 822 823 826 829 829 830 829 824 826 830 829 831 836 839 847 848 839 829 817 805 802 806 804 797 796 793 789 791 793 792 792 790 791 790 789 789 787 787 787 786 786 786 787 788 787 789 790 792 794 795 796 798 799 801 802 804 806 808 810 812 813 814 814 815 816 816 815 816 818 819 821 822 823 825 826 828 830 831
815 816 817 813 814 817 817 818 821 823 823 827 832 833 829 824 826 831 830 833 841 843 846 847 843 842 831 812 811 816 808 796 793 791 790 792 791 790 791 789 789 788 787 787 786 787 788 787 786 785 785 787 787 788 790 791 793 794 795 797 798 799 801 803 805 807 808 809 810 811 812 813 813 813 813 815 817 818 819 820 821 822 823 824 826 827
816 814 814 813 815 818 817 818 823 821 819 828 838 838 833 831 832 835 833 838 848 847 843 845 846 846 834 816 816 819 808 798 795 795 794 793 792 791 789 788 788 788 788 788 787 787 788 787 786 785 785 786 787 787 789 790 792 793 795 796 798 799 800 802 804 805 806 807 808 810 810 811 811 811 812 814 815 816 817 817 818 819 820 821 822 823
819 818 817 813 811 815 820 827 830 821 818 832 842 839 838 840 839 839 839 839 847 848 842 843 847 845 831 814 813 815 807 802 799 798 797 794 793 791 789 788 787 787 788 788 789 788 787 786 785 785 785 785 786 787 788 789 791 792 794 795 797 798 800 801 803 804 805 806 807 808 808 808 808 809 811 812 812 813 814 814 815 816 816 817 818 818
821 821 821 818 815 819 824 832 836 828 827 833 835 831 833 838 839 842 847 843 846 849 846 851 855 850 837 817 809 809 806 803 800 798 798 794 792 791 788 787 787 787 788 788 789 787 786 786 785 785 785 786 786 787 788 789 790 791 792 794 795 797 799 800 801 802 803 805 805 805 806 805 806 807 809 809 809 810 811 811 811 812 813 814 814 815
820 819 821 821 823 825 822 827 834 834 834 830 825 827 833 840 842 845 850 849 850 849 849 862 865 855 844 821 806 805 805 807 805 799 797 794 793 792 789 789 789 789 789 788 788 788 787 786 786 786 786 787 787 787 788 789 790 791 792 793 795 796 798 799 800 801 802 803 803 803 803 803 804 805 806 806 806 807 808 808 808 810 810 810 811 812
819 818 822 822 824 823 816 822 832 833 832 828 825 831 838 848 852 851 855 858 856 852 854 865 863 853 843 821 805 802 799 804 807 800 798 797 795 793 792 793 792 792 791 790 789 789 789 788 787 787 786 787 788 788 789 789 790 791 792 793 794 795 797 798 799 799 800 800 800 800 800 801 802 803 803 804 803 804 805 805 806 807 807 807 808 809
821 822 822 820 820 819 814 818 828 831 830 827 826 830 836 850 857 855 863 869 860 852 858 868 860 846 835 818 806 802 799 802 803 799 800 801 799 797 796 797 795 794 793 792 792 791 790 790 788 787 787 787 788 788 789 789 790 791 791 792 793 794 796 796 797 797 797 797 797 798 798 799 800 800 801 801 801 802 803 803 804 804 804 805 805 805
822 822 817 815 816 816 814 814 817 821 827 830 831 831 831 838 842 845 851 851 847 850 860 865 851 830 818 809 803 802 803 806 804 802 804 802 802 801 799 798 796 794 794 793 793 792 791 790 789 788 788 788 788 788 788 789 789 790 791 792 792 793 794 794 795 795 795 795 795 796 796 797 798 798 798 798 798 799 800 801 801 801 802 802 802 803
821 817 813 817 818 814 814 815 815 817 826 837 840 834 831 828 830 846 859 856 854 855 854 854 841 824 813 804 802 806 807 806 803 803 803 798 798 800 797 797 796 794 795 794 794 793 792 791 790 789 789 789 789 789 789 789 789 790 790 791 791 791 792 793 793 793 793 793 793 794 794 795 795 796 796 795 796 797 798 798 798 798 798 799 799 800
819 817 818 820 819 817 817 817 817 817 822 835 838 832 835 835 829 843 865 872 867 853 844 845 834 823 818 804 797 802 803 801 799 798 799 797 796 798 797 797 797 797 796 796 796 795 794 793 792 791 791 790 790 790 789 790 790 790 790 790 790 790 791 791 792 791 791 792 792 792 792 793 793 793 793 793 793 795 795 795 795 795 796 796 797 798
810 816 822 821 817 821 825 820 819 822 822 828 831 828 834 839 834 835 846 859 866 855 843 844 836 824 823 812 798 798 799 797 798 797 797 798 796 797 798 797 798 798 798 798 797 796 796 794 794 793 793 793 792 791 791 790 790 790 790 790 790 789 789 789 790 789 789 790 789 789 790 790 791 790 790 791 791 792 793 792 792 793 793 793 795 796
801 808 822 828 823 822 824 820 820 826 826 824 824 826 828 832 835 839 841 845 856 856 843 842 845 835 825 814 799 794 796 796 799 800 797 798 798 798 798 797 798 798 798 797 796 796 796 795 795 794 793 793 793 793 792 791 791 790 790 790 789 789 788 788 788 788 787 788 787 787 787 788 788 788 788 789 789 790 789 789 790 790 790 791 792 793
799 803 816 829 828 824 823 820 820 825 828 826 826 828 829 828 830 836 841 839 841 849 846 838 835 825 817 812 797 790 798 799 799 802 800 799 799 797 798 798 798 799 798 798 798 797 797 795 795 795 794 794 793 793 793 791 791 790 789 789 789 789 788 787 787 786 786 786 786 785 785 785 785 785 786 786 787 787 786 786 787 787 787 788 789 790
799 800 810 827 832 827 821 818 817 817 822 825 824 828 830 832 835 835 840 843 836 839 845 840 829 815 808 808 794 787 796 798 796 799 800 800 799 798 799 799 799 800 799 799 799 798 798 796 795 795 795 794 794 794 793 792 791 790 789 789 789 789 789 788 787 786 785 785 784 784 783 783 784 784 784 784 783 783 782 782 783 783 784 785 785 786
797 801 811 826 830 822 815 817 818 814 814 815 816 820 821 825 832 833 838 847 843 837 840 841 832 812 800 800 795 790 794 796 796 798 799 800 799 798 799 799 800 801 800 800 800 799 798 797 796 796 795 795 795 794 793 792 791 790 789 788 788 788 788 787 787 786 784 783 782 782 782 782 782 782 782 782 781 780 779 779 779 780 781 781 781 782
795 803 811 821 823 819 817 822 827 822 816 815 815 816 818 819 821 822 829 840 843 842 843 846 837 811 797 801 801 797 797 797 799 799 798 799 799 799 801 801 802 803 801 801 800 799 799 798 798 797 796 796 796 795 794 793 792 791 790 789 788 788 787 786 785 785 783 782 781 780 780 780 780 779 779 779 778 777 776 775 776 777 777 776 777 778
793 798 805 816 820 819 818 820 825 825 820 817 818 818 819 819 817 818 824 830 833 834 838 846 839 811 797 805 805 801 802 800 800 801 800 800 800 801 802 801 802 803 802 801 801 801 800 799 798 797 797 797 796 795 795 793 792 791 790 789 789 788 787 786 785 784 783 781 780 779 778 777 777 777 776 775 774 773 773 773 773 773 773 773 773 773
788 794 801 814 821 822 822 820 819 821 820 817 817 818 817 817 822 827 830 832 830 825 825 832 829 809 800 806 805 802 803 801 802 804 801 799 800 801 802 802 802 802 800 799 798 797 796 794 794 795 795 796 795 794 793 792 791 791 790 790 789 788 787 786 785 783 782 781 779 778 777 775 775 774 773 772 771 770 770 770 770 770 770 769 769 769
784 791 794 803 814 816 815 812 807 811 819 818 814 816 815 816 820 821 824 830 826 823 824 821 814 806 804 805 803 801 802 801 802 805 804 802 801 801 801 799 799 797 795 794 793 792 792 793 794 795 795 795 794 793 793 792 791 791 790 789 789 788 786 785 784 783 781 780 779 777 776 774 773 772 771 770 769 768 768 767 767 766 766 766 766 765
784 789 789 790 794 796 793 794 795 801 810 812 810 813 815 817 816 815 821 825 818 821 826 815 806 807 805 804 802 799 798 799 799 800 802 801 798 795 795 794 794 794 795 796 796 796 797 798 798 798 797 796 796 795 794 793 792 791 789 788 787 787 786 784 783 782 780 779 778 776 775 774 773 771 770 768 767 766 765 765 764 763 763 763 763 762
782 786 788 786 786 788 787 790 794 795 797 801 805 809 813 815 816 816 817 811 809 819 819 808 808 809 802 801 800 793 792 796 796 796 797 796 794 793 795 797 798 799 801 802 802 802 802 802 802 801 799 798 796 794 793 792 791 791 789 788 787 786 784 783 782 780 779 778 777 775 774 773 772 770 769 768 766 764 763 762 761 760 760 760 759 758
778 781 787 788 788 791 792 794 796 794 793 797 801 804 809 813 815 814 809 803 805 812 804 798 806 803 794 798 796 789 791 795 795 798 800 798 797 796 798 801 803 805 805 805 805 805 805 805 804 802 800 798 796 794 792 791 790 789 787 787 786 785 783 782 780 779 778 776 775 774 772 771 770 768 767 766 764 763 761 760 759 758 757 756 755 754
778 780 786 788 788 790 795 800 800 796 796 798 801 803 806 810 810 806 802 798 802 804 799 803 811 802 795 799 794 788 795 798 799 801 800 799 799 799 800 804 807 808 807 807 807 807 807 807 805 803 800 798 796 794 792 791 789 788 786 784 783 782 781 780 778 777 775 774 773 771 770 769 767 766 764 763 761 760 759 758 756 755 754 752 751 751
779 784 789 788 787 791 797 803 804 799 796 797 801 805 807 808 808 805 802 801 805 806 803 809 813 803 796 798 795 792 797 801 803 802 800 800 802 802 803 805 807 808 808 809 809 808 808 807 805 803 801 799 797 795 793 791 789 787 785 783 781 779 778 777 775 773 772 771 769 768 767 766 764 763 761 759 758 756 755 754 753 752 750 749 748 747
780 787 791 789 789 792 796 803 805 802 801 802 802 802 804 807 806 805 805 804 803 802 802 808 808 796 791 794 795 795 797 800 804 802 800 803 805 804 805 806 807 809 809 810 810 809 808 806 805 803 801 800 798 796 795 793 791 789 786 784 782 780 778 776 774 772 770 768 767 765 764 763 761 759 758 756 755 753 752 750 749 747 746 745 744 744
783 786 790 791 791 794 799 804 804 804 807 805 794 788 794 801 800 801 804 802 798 797 800 803 795 785 787 793 793 796 797 798 801 801 801 805 808 808 808 808 810 811 810 811 811 809 807 806 805 804 802 801 799 797 797 795 793 791 789 786 784 782 780 777 775 773 771 768 767 765 763 761 759 756 755 754 753 751 749 748 746 744 743 742 741 741
787 787 792 794 793 797 803 804 805 808 805 791 777 776 784 790 794 798 798 794 794 795 794 792 785 782 788 792 792 795 797 796 800 803 803 805 808 809 810 810 811 811 811 812 810 809 807 805 804 803 802 801 799 797 796 795 793 792 790 787 785 783 781 778 776 774 772 769 767 765 763 761 758 755 753 752 750 749 747 745 744 742 741 740 739 738
788 792 797 799 799 803 806 806 807 804 792 779 773 773 776 780 786 791 789 787 791 794 791 789 786 782 784 789 792 795 795 797 803 806 805 807 808 808 810 810 810 810 810 810 809 808 807 805 804 802 800 799 798 796 794 792 791 789 787 786 784 782 780 778 775 773 771 768 766 764 762 760 757 755 752 750 748 746 744 743 741 740 739 738 736 735
784 792 799 802 803 805 807 807 801 789 781 779 778 776 777 780 783 787 788 785 785 788 789 787 783 779 781 789 795 797 797 802 807 807 807 808 808 808 809 809 810 810 809 808 808 806 805 804 803 802 800 798 796 795 793 792 790 788 785 784 782 780 778 776 774 772 770 767 765 763 761 759 756 753 751 749 747 744 742 741 739 737 737 736 733 732
780 786 793 799 799 798 799 799 792 787 785 779 773 773 776 776 776 780 783 778 775 779 783 781 779 779 784 791 796 801 803 805 808 809 808 808 808 808 809 809 809 809 809 808 808 806 805 804 802 801 800 798 796 795 794 792 790 788 785 783 781 779 777 775 773 771 768 766 764 762 760 758 755 752 749 747 746 743 741 739 737 735 734 733 731 730
782 782 785 790 791 790 794 795 794 796 789 774 765 766 768 768 769 772 776 774 770 772 777 777 777 779 784 790 796 800 800 798 800 804 806 808 809 809 808 809 809 809 808 808 807 806 805 804 802 801 799 797 796 795 794 792 790 788 785 782 781 779 776 774 772 770 767 765 762 760 758 756 754 751 748 745 743 741 739 737 735 733 732 730 728 727
787 786 785 787 787 788 792 793 790 786 776 765 761 764 768 771 769 772 782 779 767 768 775 777 777 778 781 787 792 795 794 792 793 798 803 805 808 808 808 808 808 807 808 807 806 806 804 803 802 800 799 797 795 794 793 791 790 787 784 782 780 777 775 773 771 768 766 763 761 758 756 754 752 750 747 744 741 739 737 735 733 732 730 728 726 724
790 790 790 792 791 788 789 787 782 775 768 764 763 766 773 774 769 776 788 779 765 770 778 775 773 777 781 786 789 789 788 788 790 796 802 803 805 806 806 806 806 806 806 805 805 805 804 803 801 799 798 796 794 793 792 790 788 786 783 781 779 776 774 772 770 767 764 761 758 756 754 752 750 748 746 743 740 737 735 733 732 730 728 726 724 722
790 790 789 790 789 787 787 785 780 774 768 764 764 768 773 775 774 777 777 770 768 776 779 775 774 779 782 786 786 786 787 791 793 797 801 803 803 804 805 805 805 804 804 803 803 803 803 802 800 798 797 795 793 792 790 789 787 785 782 780 778 775 773 771 769 766 763 759 756 754 752 750 748 746 744 742 739 736 733 731 729 728 727 725 723 721
784 786 786 785 786 785 784 784 783 775 763 761 767 773 774 774 774 771 768 770 774 775 777 778 778 779 783 785 785 787 790 794 797 799 801 803 803 803 803 803 803 803 802 802 801 800 800 800 798 797 795 794 792 790 789 788 785 783 781 779 776 774 772 770 767 764 761 758 755 752 749 747 746 744 742 740 738 735 731 730 728 726 724 724 722 720
771 776 780 779 779 781 783 785 783 771 759 759 766 771 771 768 765 764 769 777 778 774 776 779 779 781 784 784 786 789 792 794 798 800 801 802 802 802 801 800 800 800 799 798 798 798 797 796 796 794 792 791 790 788 787 786 784 782 780 777 773 771 769 767 764 762 758 755 752 750 747 745 743 741 739 737 736 734 730 728 727 724 722 722 721 720
765 768 772 769 768 775 779 776 767 758 756 759 760 760 762 763 763 764 767 772 777 778 778 777 779 783 784 783 786 790 791 794 797 798 799 800 800 800 799 798 797 797 796 796 795 795 795 794 793 791 789 788 787 785 785 784 782 780 778 775 772 770 767 764 762 759 756 753 750 747 745 743 740 739 737 735 734 732 729 727 726 724 722 720 719 718
758 758 759 758 758 763 765 761 757 756 760 763 761 760 762 765 767 768 765 767 774 779 778 777 780 784 786 786 788 790 791 793 794 795 797 797 796 797 797 796 796 795 794 794 793 792 792 791 789 788 787 785 784 783 782 781 779 776 774 772 771 768 764 761 758 755 752 750 747 745 743 740 738 736 735 733 732 729 727 726 724 723 721 720 718 717
756 756 754 753 755 758 759 760 762 764 764 765 766 767 768 768 770 770 768 769 773 777 779 780 780 783 787 788 788 790 792 794 795 795 796 796 795 795 794 794 794 793 792 791 790 789 789 787 786 785 783 782 782 780 778 777 777 774 770 768 767 765 762 758 755 752 749 746 744 742 740 737 735 733 732 731 730 727 725 724 723 722 721 720 718 716
758 758 755 753 755 756 757 760 763 765 766 767 768 769 770 771 772 772 771 774 778 780 782 782 782 785 788 788 789 791 793 794 795 796 796 795 795 794 793 793 793 792 791 791 789 788 787 786 784 783 780 778 778 778 776 774 773 771 769 766 764 762 759 756 753 749 746 743 741 739 737 735 733 730 729 728 727 726 723 722 721 721 720 719 718 716
752 755 757 756 755 757 760 764 768 769 770 771 770 769 771 773 775 776 777 779 781 782 784 785 786 787 789 790 791 792 792 794 795 795 795 795 794 793 794 793 793 792 792 790 789 788 787 785 783 781 779 776 775 775 774 771 769 768 766 764 762 759 756 753 750 747 743 741 739 736 735 733 731 729 727 726 725 724 722 720 719 718 718 718 718 716
752 753 756 755 755 760 764 768 770 769 769 770 771 771 774 775 777 780 782 782 783 784 786 787 788 789 790 792 792 792 793 794 795 795 796 795 794 793 793 792 792 791 790 789 788 786 785 783 782 779 777 775 773 772 770 767 765 764 763 761 759 757 754 750 747 745 741 738 736 734 732 731 729 727 726 724 723 723 721 719 718 716 716 716 717 716
752 751 754 757 758 758 757 759 763 763 763 766 769 772 776 778 778 781 783 784 785 786 787 788 789 791 791 792 792 793 794 795 795 795 795 794 794 793 792 791 789 788 787 786 785 783 782 781 779 777 774 772 771 769 767 764 761 760 759 758 756 754 751 748 745 742 738 736 734 732 730 728 727 725 724 722 721 720 720 719 717 715 713 713 715 715
747 745 748 751 753 751 749 752 757 758 758 764 770 774 778 779 778 780 784 786 788 789 788 788 789 789 791 792 792 793 794 795 795 795 794 794 794 792 791 791 789 787 785 784 782 781 779 778 776 775 771 769 767 766 764 761 759 757 756 755 753 751 749 746 744 740 736 734 732 730 728 726 724 722 721 719 718 718 717 717 716 715 713 712 712 713